SSEC Globe Logo

Space Science and Engineering Center

Wisconsin State Observations

ASUS43 KMKX 150820                                              2021105 0820
RWRWI
WISCONSIN REGIONAL WEATHER ROUNDUP
NATIONAL WEATHER SERVICE MILWAUKEE/SULLIVAN WI
NOTE: "FAIR" INDICATES FEW OR NO CLOUDS BELOW 12,000 FEET WITH NO
SIGNIFICANT WEATHER AND/OR OBSTRUCTIONS TO VISIBILITY.

CITY           SKY/WX    TMP DP  RH WIND       PRES   REMARKS
SUPERIOR ARPT  CLOUDY    36  31  81 NW5       30.17S WCI  32
ASHLAND        CLOUDY    37  32  82 N10       30.14S WCI  30
HAYWARD        CLOUDY    38  33  82 N5        30.12S WCI  34
SIREN          CLOUDY    38  32  78 N6        30.15S WCI  34
CUMBERLAND     CLOUDY    36  34  93 N10       30.13S WCI  28
RICE LAKE      CLOUDY    38  36  94 NW6       30.14S WCI  33
CHETEK         CLOUDY    38  37  94 N6        30.12S WCI  34
LADYSMITH        N/A     38  35  87 NW8       30.12S WCI  33
EAU CLAIRE     CLOUDY    40  35  83 NW9       30.11S WCI  34
MENOMONIE      CLEAR     35  32  90 NW5       30.13S WCI  31
NEW RICHMOND   CLOUDY    37  35  90 N5        30.15S WCI  34
OSCEOLA        CLOUDY    39  36  88 N5        30.19S


CITY           SKY/WX    TMP DP  RH WIND       PRES   REMARKS
MANITOWISH WTR CLOUDY    32  31  94 N6        30.06S WCI  26
ARBOR VITAE    CLOUDY    37  28  71 N7        30.05S WCI  31
WOODRUFF       CLOUDY    37  28  71 N7        30.05S WCI  31
RHINELANDER    CLOUDY    35  32  88 N7        30.04S WCI  29
EAGLE RIVER    CLOUDY    33  33  99 N9        30.03S WCI  25
LAND O LAKES   CLOUDY    32  32  99 N7        30.05S FOG     WCI  26
PHILLIPS       CLOUDY    35  35 100 NW5       30.07F WCI  31
TOMAHAWK       CLOUDY    34  32  91 NW7       30.06R WCI  28
MEDFORD        CLOUDY    35  32  88 NW10      30.06F WCI  28
MERRILL        LGT RAIN  36  35  94 CALM      30.04S


CITY           SKY/WX    TMP DP  RH WIND       PRES   REMARKS
WAUSAU         CLOUDY    39  32  76 NW9G18    30.03S WCI  33
MOSINEE        CLOUDY    36  32  87 NW9       30.05S WCI  29
MARSHFIELD     CLOUDY    36  31  82 N9        30.06S WCI  29
STEVENS POINT  CLOUDY    35  33  92 NW5       30.04F WCI  31
WAUPACA        MOCLDY    39  34  82 NW5G17    30.03S
WAUTOMA        MOCLDY    36  33  89 NW7       30.05S WCI  30
WISC RAPIDS    MOCLDY    36  33  89 NW7       30.07S WCI  30
CAMP DOUGLAS   CLEAR     31  31 100 W3        30.07S


CITY           SKY/WX    TMP DP  RH WIND       PRES   REMARKS
ANTIGO         CLOUDY    35  33  94 NW13G20   30.02S WCI  26
SHAWANO        CLOUDY    39  35  86 N3        30.01R
OCONTO         CLOUDY    39  35  87 NW10G16   29.97S WCI  32
STURGEON BAY   CLOUDY    38  36  92 N12       29.96S WCI  30
GREEN BAY      CLOUDY    40  34  79 NW14      29.99S WCI  32
MANITOWOC      LGT RAIN  38  37  97 NW15G21   29.97S WCI  29
APPLETON       CLOUDY    36  32  87 NW12      29.99S WCI  27
CLINTONVILLE   CLOUDY    38  34  83 NW7       30.01S WCI  33
OSHKOSH        CLOUDY    38  34  85 NW13      30.00S WCI  30


CITY           SKY/WX    TMP DP  RH WIND       PRES   REMARKS
LA CROSSE      CLEAR     37  34  89 N3        30.11S
SPARTA           N/A     31  30  97 CALM      30.10S
VIROQUA        CLEAR     35  35 100 NW6       30.08S WCI  29
BOSCOBEL       CLEAR     32  30  92 CALM      30.10R
PRAIRIE DU CHI PTCLDY    34  30  86 CALM      30.11S
PLATTEVILLE    PTCLDY    33  33  99 W6        30.08S WCI  27

CITY           SKY/WX    TMP DP  RH WIND       PRES   REMARKS
REEDSBURG      CLOUDY    36  32  87 W5        30.06S WCI  32
BARABOO/DELLS  CLEAR     34  31  90 N6        30.05F WCI  29
LONE ROCK      PTCLDY    37  32  82 W6        30.08S WCI  32
MINERAL POINT  PTCLDY    36  32  87 NW7       30.06S WCI  30
MADISON        CLOUDY    38  31  76 N9        30.03S WCI  31
MIDDLETON      CLOUDY    39  32  76 N13G18    30.05S WCI  31
WATERTOWN      MOCLDY    35  32  90 NW8       30.01F WCI  28
MONROE         CLEAR     35  30  83 N9G16     30.03S WCI  28
JANESVILLE     MOCLDY    37  32  81 NW7       30.03R WCI  32


CITY           SKY/WX    TMP DP  RH WIND       PRES   REMARKS
MILWAUKEE      CLOUDY    40  31  70 NW12      29.99S WCI  33
WAUKESHA       CLOUDY    36  32  87 NW10      30.00S WCI  28
MILWAUKEE/TIMM CLOUDY    37  30  75 NW9       30.00S WCI  31
RACINE         MOCLDY    39  31  72 NW8       30.01S WCI  33
KENOSHA        CLOUDY    39  31  72 W8        29.99F WCI  33
FOND DU LAC    CLOUDY    39  32  76 NW13      30.01S WCI  31
SHEBOYGAN      MOCLDY    39  33  79 NW12      29.97S WCI  32
WEST BEND      CLOUDY    36  34  93 NW10G16   29.99S WCI  28
JUNEAU         MOCLDY    34  32  93 NW8       30.02F WCI  27
LSZ147-162-150900-
LAKE SUPERIOR

STATION/POSITION TIME  TEMP    WIND        PRES    WAVE
                       AIR SEA DIR/SP/G            HT/PER
                 (UTC) (F)     (DEG/KT/KT) (MB)    (FT/S)
DEVILS ISLAND    0800   36     360/ 14/ 16 1021.3F
PORT WING        0740   38     340/  5/  6 1021.0S
SAXON HARBOR     0740   35      50/  6/  8 1020.0R

LMZ867-665-643>646-150900-
LAKE MICHIGAN

STATION/POSITION TIME  TEMP    WIND        PRES    WAVE
                       AIR SEA DIR/SP/G            HT/PER
                 (UTC) (F)     (DEG/KT/KT) (MB)    (FT/S)
CHAMBERS ISLAND  0730   38     280/ 17/ 20   N/A
NORTHPORT PIER   0740   38     310/ 21/ 26 1014.6R
KEWAUNEE LAKESHO 0748   38     320/ 10/ 15 1013.9F
SHEBOYGAN LAKESH 0800   39     310/ 11/ 15   N/A
PORT WASHINGTON  0730   39     310/  7/ 13 1016.6S
ATWATER BUOY     0800   40 41  290/ 12/ 14 1015.6    1
MILWAUKEE LAKESH 0800   39     290/  8/ 10   N/A
KENOSHA   LAKESH 0800   39     290/  8/ 12 1015.9
TC  - TEMPERATURE IN CELSIUS
VSB - VISIBILITY IN STATUTE MILES
WCI - WIND CHILL INDEX
HX  - HEAT INDEX